This is the latest recevied weather packets stored in our database for station/object SQ3PLU-13. If no packets are shown the sender has not sent any weather packets the latest 10 day(s).
| Time | Temp. | Humidity | Pressure | Rain* | Wind** | Luminosity | Snow |
|---|---|---|---|---|---|---|---|
| 1778323801 | 15° C | 66% | 1012 hPa | - | - | - | - |
| 1778323502 | 15.56° C | 65% | 1012 hPa | - | - | - | - |
| 1778323202 | 15.56° C | 65% | 1012 hPa | - | - | - | - |
| 1778322902 | 15.56° C | 64% | 1012 hPa | - | - | - | - |
| 1778322602 | 16.67° C | 62% | 1012 hPa | - | - | - | - |
| 1778322302 | 16.11° C | 64% | 1012 hPa | - | - | - | - |
| 1778322003 | 15.56° C | 65% | 1012 hPa | - | - | - | - |
| 1778321703 | 15.56° C | 68% | 1012 hPa | - | - | - | - |
| 1778321402 | 15° C | 70% | 1012 hPa | - | - | - | - |
| 1778321102 | 15° C | 69% | 1012 hPa | - | - | - | - |
| 1778320802 | 15.56° C | 66% | 1012 hPa | - | - | - | - |
| 1778320502 | 15.56° C | 68% | 1012 hPa | - | - | - | - |
| 1778320203 | 15° C | 73% | 1012 hPa | - | - | - | - |
| 1778319603 | 14.44° C | 77% | 1012 hPa | - | - | - | - |
| 1778319303 | 13.89° C | 75% | 1012 hPa | - | - | - | - |
| 1778318702 | 14.44° C | 74% | 1012 hPa | - | - | - | - |
| 1778318402 | 14.44° C | 72% | 1012 hPa | - | - | - | - |
| 1778318102 | 15.56° C | 70% | 1012 hPa | - | - | - | - |
| 1778317803 | 15° C | 65% | 1012 hPa | - | - | - | - |
| 1778317484 | 15.56° C | 63% | 1012 hPa | - | - | - | - |
| 1778317156 | 15.56° C | 62% | 1012 hPa | - | - | - | - |
| 1778289862 | 8.89° C | 10% | - | - | - | - | - |
| 1778289562 | 8.33° C | 10% | - | - | - | - | - |
| 1778289262 | 9.44° C | 10% | - | - | - | - | - |
| 1778288962 | 8.33° C | 10% | - | - | - | - | - |
* Rain since midnight (hover to see other rain measurements)
** Current wind speed in m/s (hover to see current wind gust speed)